This demonstration page uses our WeatherBlox Daily Observations layout. Learn more.

Left ArrowRight Arrow

36.19886, -115.1175

Hourly Observations for December 30, 2015

Temp ( °F °C ) Dew Point ( °F °C ) Humidity (%) Winds ( mph kmh ) Pressure ( in mb ) Visibility ( mi km ) Precip ( " mm )
12:53 am 00:53 Clear 32 0 17 -8.3 54 54 NW 7 11 30.21 1023 10 16 0.00 0.00
1:53 am 01:53 Clear 32 0 16 -8.9 52 52 NNW 6 9 30.23 1024 10 16 0.00 0.00
2:53 am 02:53 Clear 35 1.7 17 -8.3 48 48 N 6 9 30.23 1024 10 16 0.00 0.00
3:53 am 03:53 Clear 30 -1.1 16 -8.9 56 56 WNW 6 9 30.24 1024 10 16 0.00 0.00
4:53 am 04:53 Clear 29 -1.7 17 -8.3 61 61 WNW 6 9 30.25 1024 10 16 0.00 0.00
5:53 am 05:53 Clear 30 -1.1 16 -8.9 56 56 NW 5 7 30.28 1025 10 16 0.00 0.00
6:53 am 06:53 Sunny 29 -1.7 16 -8.9 58 58 NW 3 6 30.30 1026 10 16 0.00 0.00
7:53 am 07:53 Sunny 31 -0.6 18 -7.8 59 59 Calm 30.32 1027 10 16 0.00 0.00
8:53 am 08:53 Sunny 36 2.2 17 -8.3 46 46 Calm 30.33 1027 10 16 0.00 0.00
9:53 am 09:53 Sunny 40 4.4 17 -8.3 40 40 SE 5 7 30.33 1027 10 16 0.00 0.00
10:53 am 10:53 Sunny 42 5.6 15 -9.4 33 33 ESE 8 13 30.31 1026 10 16 0.00 0.00
11:53 am 11:53 Sunny 44 6.7 16 -8.9 32 32 SE 9 15 30.26 1025 10 16 0.00 0.00
12:53 pm 12:53 Sunny 45 7.2 16 -8.9 31 31 Calm 30.23 1024 10 16 0.00 0.00
1:53 pm 13:53 Sunny 47 8.3 16 -8.9 29 29 ESE 6 9 30.20 1023 10 16 0.00 0.00
2:53 pm 14:53 Sunny 48 8.9 16 -8.9 28 28 SE 5 7 30.19 1022 10 16 0.00 0.00
3:53 pm 15:53 Sunny 48 8.9 16 -8.9 28 28 NE 5 7 30.21 1023 10 16 0.00 0.00
4:53 pm 16:53 Clear 45 7.2 15 -9.4 30 30 ESE 3 6 30.22 1023 10 16 0.00 0.00
5:53 pm 17:53 Clear 45 7.2 17 -8.3 33 33 Calm 30.23 1024 10 16 0.00 0.00
6:53 pm 18:53 Clear 40 4.4 17 -8.3 40 40 WNW 6 9 30.26 1025 10 16 0.00 0.00
7:53 pm 19:53 Clear 37 2.8 17 -8.3 44 44 NW 6 9 30.27 1025 10 16 0.00 0.00
8:53 pm 20:53 Clear 38 3.3 17 -8.3 43 43 NNW 7 11 30.27 1025 10 16 0.00 0.00
9:53 pm 21:53 Clear 38 3.3 17 -8.3 43 43 NNW 7 11 30.27 1025 10 16 0.00 0.00
10:53 pm 22:53 Clear 35 1.7 16 -8.9 46 46 ESE 6 9 30.28 1025 10 16 0.00 0.00
11:53 pm 23:53 Clear 34 1.1 16 -8.9 48 48 NNE 6 9 30.29 1026 10 16 0.00 0.00

Powered by AerisWeather